Weather History for KPHN - April, 2014

Change the Weather History Date:

Thursday, April 10, 2014

  Actual Average (KMTC) Record (KMTC)
Temperature  
Mean Temperature 52 °F -  
Max Temperature 68 °F 51 °F 80 °F (2011)
Min Temperature 35 °F 31 °F 21 °F (1997)
Degree Days  
Heating Degree Days 14    
Growing Degree Days 2 (Base 50)    
Moisture  
Dew Point 39 °F    
Average Humidity 67    
Maximum Humidity 93    
Minimum Humidity 40    
Precipitation  
Precipitation 0.00 in - - ()
Sea Level Pressure  
Sea Level Pressure 29.79 in    
Wind  
Wind Speed 10 mph (SSW)    
Max Wind Speed 31 mph    
Max Gust Speed 41 mph    
Visibility 10 miles    
Events Rain    
Averages and records for this station are not official NWS values.
T = Trace of Precipitation, MM = Missing Value Source: NWS Daily Summary

Daily Weather History Graph

Daily Weather History Graph

Search for Another Location

Airport or City:

Trip Planner

Search our weather history database for the weather conditions in past years. The results will help you decide how hot, cold, wet, or windy it might be!

Date:

Astronomy

Apr. 10, 2014 Rise Set
Actual Time 6:56 AM EDT 8:06 PM EDT
Civil Twilight 6:27 AM EDT 8:35 PM EDT
Nautical Twilight 5:52 AM EDT 9:10 PM EDT
Astronomical Twilight 5:16 AM EDT 9:47 PM EDT
Moon 3:43 PM EDT (4/10) 4:25 AM EDT (4/10)
Length of Visible Light 14h 08m
Length of Day
13h 10m
Waxing Gibbous, 79% of the Moon is Illuminated
Apr 10
Waxing Gibbous
Apr 15
Full
Apr 22
Last Quarter
Apr 29
New
May 6
First Quarter

Hourly Weather History & Observations

Time (EDT) Temp. Windchill Dew Point Humidity Pressure Visibility Wind Dir Wind Speed Gust Speed Precip Events Conditions
12:17 AM 37.4 °F 32.8 °F 30.2 °F 75% 29.92 in 10.0 mi South 5.8 mph - N/A   Clear
12:37 AM 35.6 °F 31.7 °F 30.2 °F 81% 29.91 in 10.0 mi South 4.6 mph - N/A   Clear
12:57 AM 35.6 °F 31.7 °F 30.2 °F 81% 29.91 in 10.0 mi South 4.6 mph - N/A   Clear
1:17 AM 35.6 °F 30.7 °F 30.2 °F 81% 29.91 in 10.0 mi South 5.8 mph - N/A   Clear
1:37 AM 37.4 °F 32.8 °F 32.0 °F 81% 29.90 in 10.0 mi South 5.8 mph - N/A   Clear
1:57 AM 37.4 °F 32.8 °F 32.0 °F 81% 29.90 in 10.0 mi South 5.8 mph - N/A   Clear
2:17 AM 37.4 °F 32.8 °F 33.8 °F 87% 29.89 in 10.0 mi SSW 5.8 mph - N/A   Clear
2:37 AM 39.2 °F 34.2 °F 33.8 °F 81% 29.89 in 10.0 mi SSW 6.9 mph - N/A   Scattered Clouds
2:57 AM 41.0 °F 36.4 °F 35.6 °F 81% 29.88 in 10.0 mi South 6.9 mph - N/A   Mostly Cloudy
3:17 AM 41.0 °F 35.8 °F 35.6 °F 81% 29.87 in 10.0 mi South 8.1 mph - N/A   Scattered Clouds
3:37 AM 41.0 °F 35.8 °F 35.6 °F 81% 29.86 in 10.0 mi South 8.1 mph - N/A   Clear
3:57 AM 42.8 °F 37.0 °F 35.6 °F 76% 29.85 in 10.0 mi South 10.4 mph - N/A   Scattered Clouds
4:17 AM 42.8 °F 37.5 °F 35.6 °F 76% 29.85 in 10.0 mi South 9.2 mph - N/A   Clear
4:37 AM 42.8 °F 37.5 °F 35.6 °F 76% 29.84 in 10.0 mi South 9.2 mph - N/A   Clear
4:57 AM 42.8 °F 37.0 °F 37.4 °F 81% 29.84 in 10.0 mi SSW 10.4 mph - N/A   Clear
5:17 AM 42.8 °F 37.5 °F 37.4 °F 81% 29.84 in 10.0 mi SSW 9.2 mph - N/A   Clear
5:37 AM 42.8 °F 37.5 °F 37.4 °F 81% 29.83 in 10.0 mi South 9.2 mph - N/A   Clear
5:57 AM 42.8 °F 37.5 °F 35.6 °F 76% 29.83 in 10.0 mi South 9.2 mph - N/A   Clear
6:17 AM 42.8 °F 38.0 °F 35.6 °F 76% 29.83 in 10.0 mi South 8.1 mph - N/A   Clear
6:37 AM 42.8 °F 37.5 °F 35.6 °F 76% 29.83 in 10.0 mi South 9.2 mph - N/A   Clear
6:57 AM 42.8 °F 37.5 °F 37.4 °F 81% 29.83 in 10.0 mi South 9.2 mph - N/A   Clear
7:17 AM 42.8 °F 37.0 °F 37.4 °F 81% 29.83 in 10.0 mi South 10.4 mph - N/A   Clear
7:37 AM 42.8 °F 37.0 °F 37.4 °F 81% 29.83 in 10.0 mi South 10.4 mph - N/A   Clear
7:57 AM 44.6 °F 38.8 °F 37.4 °F 76% 29.82 in 10.0 mi South 11.5 mph - N/A   Clear
8:17 AM 46.4 °F 41.1 °F 37.4 °F 71% 29.82 in 10.0 mi South 11.5 mph 21.9 mph N/A   Clear
8:37 AM 46.4 °F 40.1 °F 37.4 °F 71% 29.81 in 10.0 mi SSW 15.0 mph 23.0 mph N/A   Clear
8:57 AM 48.2 °F - 37.4 °F 66% 29.81 in 10.0 mi SSW 16.1 mph 24.2 mph N/A   Clear
9:17 AM 50.0 °F - 39.2 °F 66% 29.80 in 10.0 mi South 18.4 mph 25.3 mph N/A   Clear
9:37 AM 50.0 °F - 39.2 °F 66% 29.79 in 10.0 mi SSW 17.3 mph 24.2 mph N/A   Clear
9:57 AM 50.0 °F - 39.2 °F 66% 29.78 in 10.0 mi South 18.4 mph 26.5 mph N/A   Clear
10:17 AM 51.8 °F - 39.2 °F 62% 29.77 in 10.0 mi South 18.4 mph 26.5 mph N/A   Clear
10:37 AM 53.6 °F - 39.2 °F 58% 29.76 in 10.0 mi South 17.3 mph 24.2 mph N/A   Clear
10:57 AM 53.6 °F - 39.2 °F 58% 29.76 in 10.0 mi South 20.7 mph 29.9 mph N/A   Clear
11:17 AM 55.4 °F - 39.2 °F 54% 29.76 in 10.0 mi South 20.7 mph 27.6 mph N/A   Clear
11:37 AM 55.4 °F - 39.2 °F 54% 29.75 in 10.0 mi SSW 18.4 mph 25.3 mph N/A   Clear
11:57 AM 57.2 °F - 39.2 °F 51% 29.73 in 10.0 mi South 25.3 mph 32.2 mph N/A   Clear
12:17 PM 59.0 °F - 41.0 °F 51% 29.72 in 10.0 mi South 23.0 mph 34.5 mph N/A   Clear
12:37 PM 59.0 °F - 41.0 °F 51% 29.69 in 10.0 mi South 27.6 mph 33.4 mph N/A   Clear
12:57 PM 60.8 °F - 41.0 °F 48% 29.68 in 10.0 mi South 26.5 mph 38.0 mph N/A   Clear
1:17 PM 60.8 °F - 41.0 °F 48% 29.67 in 10.0 mi South 29.9 mph 38.0 mph N/A   Clear
1:37 PM 62.6 °F - 41.0 °F 45% 29.66 in 10.0 mi South 27.6 mph 41.4 mph N/A   Clear
1:57 PM 62.6 °F - 41.0 °F 45% 29.64 in 10.0 mi SSW 31.1 mph 38.0 mph N/A   Clear
2:17 PM 62.6 °F - 41.0 °F 45% 29.65 in 10.0 mi SSW 26.5 mph 39.1 mph N/A   Clear
2:37 PM 64.4 °F - 41.0 °F 42% 29.66 in 10.0 mi SSW 27.6 mph 39.1 mph N/A   Clear
2:57 PM 64.4 °F - 42.8 °F 45% 29.66 in 10.0 mi SSW 23.0 mph 33.4 mph N/A   Clear
3:17 PM 66.2 °F - 42.8 °F 43% 29.65 in 10.0 mi SW 16.1 mph 25.3 mph N/A   Clear
3:37 PM 68.0 °F - 42.8 °F 40% 29.64 in 10.0 mi SW 12.7 mph 28.8 mph N/A   Clear
3:57 PM 66.2 °F - 42.8 °F 43% 29.64 in 10.0 mi SW 16.1 mph 24.2 mph N/A   Scattered Clouds
4:17 PM 66.2 °F - 42.8 °F 43% 29.65 in 10.0 mi WSW 17.3 mph 29.9 mph N/A   Scattered Clouds
4:37 PM 66.2 °F - 42.8 °F 43% 29.65 in 10.0 mi SW 11.5 mph 25.3 mph N/A   Mostly Cloudy
4:57 PM 68.0 °F - 42.8 °F 40% 29.65 in 10.0 mi SW 12.7 mph 24.2 mph N/A   Scattered Clouds
5:17 PM 66.2 °F - 42.8 °F 43% 29.65 in 10.0 mi West 12.7 mph 17.3 mph N/A   Mostly Cloudy
5:37 PM 66.2 °F - 42.8 °F 43% 29.66 in 10.0 mi West 11.5 mph 18.4 mph N/A   Overcast
5:57 PM 64.4 °F - 42.8 °F 45% 29.69 in 10.0 mi West 9.2 mph 24.2 mph N/A   Overcast
6:17 PM 60.8 °F - 42.8 °F 52% 29.70 in 10.0 mi WNW 13.8 mph 23.0 mph N/A   Overcast
6:37 PM 60.8 °F - 42.8 °F 52% 29.72 in 10.0 mi WNW 17.3 mph 20.7 mph N/A Rain Light Rain
6:57 PM 59.0 °F - 42.8 °F 55% 29.74 in 10.0 mi WNW 6.9 mph - N/A Rain Rain
7:17 PM 59.0 °F - 42.8 °F 55% 29.75 in 10.0 mi West 4.6 mph - N/A   Light Drizzle
7:37 PM 59.0 °F - 44.6 °F 59% 29.76 in 10.0 mi WNW 5.8 mph - N/A   Overcast
7:57 PM 55.4 °F - 44.6 °F 67% 29.77 in 10.0 mi North 5.8 mph - N/A   Overcast
8:17 PM 53.6 °F - 44.6 °F 72% 29.79 in 10.0 mi NNW 3.5 mph - N/A   Scattered Clouds
8:37 PM 48.2 °F - 42.8 °F 82% 29.80 in 10.0 mi ENE 8.1 mph - N/A   Mostly Cloudy
8:57 PM 44.6 °F 42.2 °F 41.0 °F 87% 29.82 in 10.0 mi ENE 4.6 mph - N/A   Overcast
9:17 PM 44.6 °F 42.2 °F 39.2 °F 81% 29.84 in 10.0 mi ENE 4.6 mph - N/A   Overcast
9:37 PM 44.6 °F - 39.2 °F 81% 29.85 in 10.0 mi Calm Calm - N/A   Overcast
9:57 PM 44.6 °F - 39.2 °F 81% 29.86 in 10.0 mi Calm Calm - N/A   Mostly Cloudy
10:17 PM 44.6 °F - 39.2 °F 81% 29.87 in 10.0 mi Calm Calm - N/A   Scattered Clouds
10:37 PM 44.6 °F - 39.2 °F 81% 29.88 in 10.0 mi Calm Calm - N/A   Clear
10:57 PM 42.8 °F - 41.0 °F 93% 29.89 in 10.0 mi Calm Calm - N/A   Clear
11:17 PM 42.8 °F - 41.0 °F 93% 29.89 in 10.0 mi Calm Calm - N/A   Clear
11:37 PM 42.8 °F - 39.2 °F 87% 29.89 in 10.0 mi Calm Calm - N/A   Clear
11:57 PM 41.0 °F - 39.2 °F 93% 29.89 in 7.0 mi Calm Calm - N/A   Clear